Location: Newark
(47.5833°N, 8.1500°E)
Time: 17:58:19
(UTC+00:00)

Tiros 1 despin weight - Pass Details

Date: 28 October 2020
Orbit: 593 x 642 km, 48.2° (Epoch: 27 November)

Event Time Altitude Azimuth Distance (km) Brightness Sun altitude
Rises 22:44:20 0° 204° (SSW) 2,866 - -55.5°
Reaches altitude 10° 22:47:09 10° 186° (S) 1,955 - -55.6°
Maximum altitude 22:50:21 19° 141° (SE) 1,435 - -55.7°
Drops below altitude 10° 22:53:32 10° 95° (E) 1,943 - -55.7°
Sets 22:56:19 0° 78° (ENE) 2,842 - -55.8°
